This demonstration page uses our WeatherBlox Daily Observations layout. Learn more.

Hourly Observations for June 2, 2019

Temp ( °F °C ) Dew Point ( °F °C ) Humidity (%) Winds ( mph kmh ) Pressure ( in mb ) Visibility ( mi km ) Precip ( " mm )
12:15 am 00:15 Clear 61 16 53 11.8 76 76 ENE 9 15 29.94 1014 10 16.09344 0 0
12:35 am 00:35 Clear 61 16 53 11.6 75 75 ENE 7 11 29.94 1014 10 16.09344 0 0
12:55 am 00:55 Clear 60 15.7 52 11.3 75 75 E 8 13 30 1016 10 16.09344 0 0
1:15 am 01:15 Clear 60 15.7 52 11.2 75 75 ENE 9 15 30 1016 10 16.09344 0 0
1:35 am 01:35 Clear 60 15.4 52 11 75 75 E 7 11 30 1016 10 16.09344 0 0
1:55 am 01:55 Clear 59 15 52 11 77 77 ESE 5 7 30 1016 10 16.09344 0 0
2:15 am 02:15 Clear 58 14.3 52 11 81 81 E 8 13 30 1016 10 16.09344 0 0
2:35 am 02:35 Clear 58 14.5 51 10.5 77 77 E 9 15 30 1016 10 16.09344 0 0
2:55 am 02:55 Clear 57 14.1 51 10.5 79 79 ENE 8 13 30 1016 10 16.09344 0 0
3:15 am 03:15 Clear 56 13.6 51 10.3 81 81 E 5 7 30 1016 10 16.09344 0 0
3:35 am 03:35 Clear 57 13.7 51 10.4 81 81 SSE 5 7 30.03 1017 10 16.09344 0 0
3:55 am 03:55 Clear 55 13 50 10.2 83 83 E 5 7 30.06 1018 10 16.09344 0 0
4:15 am 04:15 Clear 55 12.8 51 10.4 85 85 ESE 7 11 30.06 1018 10 16.09344 0 0
4:35 am 04:35 Clear 55 12.6 51 10.6 88 88 E 6 9 30.06 1018 10 16.09344 0 0
4:55 am 04:55 Clear 54 12.4 50 10.1 86 86 ENE 9 15 30.03 1017 10 16.09344 0 0
5:15 am 05:15 Clear 55 13 50 10.1 83 83 E 7 11 30 1016 10 16.09344 0 0
5:35 am 05:35 Clear 55 12.8 50 10 83 83 ENE 9 15 30.03 1017 10 16.09344 0 0
5:55 am 05:55 Clear 54 12.1 50 10 87 87 ENE 3 6 30.06 1018 10 16.09344 0 0
6:15 am 06:15 Sunny 54 12 50 10 88 88 E 5 7 30.06 1018 10 16.09344 0 0
6:35 am 06:35 Sunny 53 11.6 50 10.1 91 91 ESE 3 6 30.06 1018 10 16.09344 0 0
6:55 am 06:55 Sunny 54 12.4 50 10.1 86 86 Calm 30.06 1018 10 16.09344 0 0
7:15 am 07:15 Sunny 55 12.8 51 10.4 85 85 Calm 30.06 1018 10 16.09344 0 0
7:35 am 07:35 Sunny 57 13.7 50 10 79 79 E 5 7 30.06 1018 10 16.09344 0 0
7:55 am 07:55 Sunny 58 14.5 50 10.1 75 75 ESE 7 11 30.06 1018 10 16.09344 0 0
8:15 am 08:15 Sunny 60 15.4 51 10.3 72 72 E 8 13 30.06 1018 10 16.09344 0 0
8:35 am 08:35 Sunny 61 16.1 50 10 67 67 E 9 15 30.06 1018 10 16.09344 0 0
8:55 am 08:55 Sunny 63 17 51 10.4 65 65 E 9 15 30.03 1017 10 16.09344 0 0
9:15 am 09:15 Sunny 64 17.5 50 10.2 62 62 ESE 9 15 30.03 1017 10 16.09344 0 0
9:30 am 09:30 Sunny 64 17.8 50 10.2 61 61 ESE 8 13 30.03 1017 10 16.09344 0 0
9:55 am 09:55 Sunny 66 18.7 50 10.2 58 58 E 8 13 30.03 1017 10 16.09344 0 0
10:15 am 10:15 Sunny 67 19.5 51 10.5 56 56 SE 7 11 30.03 1017 10 16.09344 0 0
10:35 am 10:35 Sunny 68 19.9 51 10.4 54 54 SE 10 17 30.03 1017 10 16.09344 0 0
10:55 am 10:55 Sunny 69 20.4 52 10.9 55 55 ESE 8 13 30 1016 10 16.09344 0 0
11:15 am 11:15 Sunny 70 21 50 9.8 49 49 SE 9 15 29.97 1015 10 16.09344 0 0
11:35 am 11:35 Sunny 71 21.5 50 10.2 49 49 ESE 9 15 29.97 1015 10 16.09344 0 0
11:55 am 11:55 Sunny 72 22.3 51 10.6 48 48 SE 8 13 29.97 1015 10 16.09344 0 0
12:15 pm 12:15 Sunny 73 22.7 51 10.8 47 47 SE 10 17 29.97 1015 10 16.09344 0 0
12:35 pm 12:35 Sunny 74 23.1 52 11.2 47 47 ESE 10 17 29.97 1015 10 16.09344 0 0
12:55 pm 12:55 Sunny 74 23.5 53 11.6 47 47 SE 8 13 29.97 1015 10 16.09344 0 0
1:15 pm 13:15 Sunny 75 23.7 53 11.8 47 47 SE 12 19 29.94 1014 10 16.09344 0 0
1:35 pm 13:35 Sunny 75 23.8 53 11.6 46 46 SE 8 13 29.91 1013 10 16.09344 0 0
1:55 pm 13:55 Sunny 76 24.5 53 11.8 45 45 SE 9 15 29.91 1013 10 16.09344 0 0
2:15 pm 14:15 Sunny 76 24.6 54 12.1 46 46 SE 10 17 29.91 1013 10 16.09344 0 0
2:35 pm 14:35 Sunny 77 25 54 12.4 46 46 SSE 13 20 29.91 1013 10 16.09344 0 0
2:55 pm 14:55 Sunny 78 25.5 55 12.9 46 46 SSE 10 17 29.91 1013 10 16.09344 0 0
3:15 pm 15:15 Sunny 78 25.5 54 12 43 43 SE 10 17 29.88 1012 10 16.09344 0 0
3:35 pm 15:35 Sunny 79 26 54 12.1 42 42 SSE 7 11 29.88 1012 10 16.09344 0 0
3:55 pm 15:55 Sunny 79 25.9 55 12.5 43 43 SE 10 17 29.88 1012 10 16.09344 0 0
4:15 pm 16:15 Sunny 79 26 55 12.9 44 44 SE 16 26 29.85 1011 10 16.09344 0 0
4:35 pm 16:35 Sunny 79 26.3 54 12.4 42 42 S 12 19 29.85 1011 10 16.09344 0 0
4:55 pm 16:55 Sunny 79 26.3 55 12.6 43 43 SSE 15 24 29.85 1011 10 16.09344 0 0
5:15 pm 17:15 Sunny 80 26.5 56 13.1 44 44 SSE 13 20 29.83 1010 10 16.09344 0 0
5:35 pm 17:35 Sunny 79 26.3 54 12.1 41 41 SSE 14 22 29.85 1011 10 16.09344 0 0
5:55 pm 17:55 Sunny 79 26.2 55 13 44 44 SSE 14 22 29.85 1011 10 16.09344 0 0
6:15 pm 18:15 Sunny 79 26 54 12.2 42 42 SSE 13 20 29.85 1011 10 16.09344 0 0
6:35 pm 18:35 Sunny 78 25.4 55 12.6 45 45 S 14 22 29.85 1011 10 16.09344 0 0
6:55 pm 18:55 Sunny 77 25.1 55 12.8 46 46 SSE 13 20 29.85 1011 10 16.09344 0 0
7:15 pm 19:15 Sunny 77 25.1 55 12.8 46 46 SSE 13 20 29.83 1010 10 16.09344 0 0
7:35 pm 19:35 Sunny 76 24.4 55 12.9 49 49 SSE 12 19 29.83 1010 10 16.09344 0 0
7:55 pm 19:55 Sunny 76 24.2 56 13.1 50 50 SSE 14 22 29.83 1010 10 16.09344 0 0
8:15 pm 20:15 Sunny 75 23.7 55 13 51 51 SSE 12 19 29.83 1010 10 16.09344 0 0
8:35 pm 20:35 Sunny 73 23 56 13.4 55 55 SSE 10 17 29.85 1011 10 16.09344 0 0
8:55 pm 20:55 Sunny 72 22.1 56 13.5 58 58 SSE 9 15 29.88 1012 10 16.09344 0 0
9:15 pm 21:15 Clear 71 21.5 56 13.3 60 60 SSE 10 17 29.85 1011 10 16.09344 0 0
9:35 pm 21:35 Clear 70 21.1 56 13.2 61 61 SE 10 17 29.85 1011 10 16.09344 0 0
9:55 pm 21:55 Clear 69 20.7 56 13.2 62 62 SE 10 17 29.88 1012 10 16.09344 0 0
10:15 pm 22:15 Clear 69 20.6 56 13.1 62 62 SE 12 19 29.88 1012 10 16.09344 0 0
10:35 pm 22:35 Clear 69 20.3 55 12.9 63 63 SE 12 19 29.88 1012 10 16.09344 0 0
10:55 pm 22:55 Clear 68 20.1 56 13.1 64 64 SE 10 17 29.88 1012 10 16.09344 0 0
11:15 pm 23:15 Clear 68 20 55 13 64 64 SE 12 19 29.88 1012 10 16.09344 0 0
11:35 pm 23:35 Clear 67 19.5 56 13.1 67 67 SE 10 17 29.88 1012 10 16.09344 0 0
11:55 pm 23:55 Clear 67 19.5 56 13.1 67 67 SE 12 19 29.88 1012 10 16.09344 0 0

Powered by AerisWeather